Regional Weather Roundup
Issued by NWS Sioux Falls, SD

Home | Current Version | Previous Version | Graphics & Text | Print | Product List | Glossary On
Versions: 1 2 3 4 5 6 7 8 9 10 11 12 13 14 15 16 17 18 19 20 21 22 23 24 25 26 27 28 29 30 31 32 33 34 35 36 37 38 39 40 41 42 43 44 45 46 47 48 49 50
000
ASUS43 KFSD 261810
RWRFSD

WEATHER ROUNDUP FOR SE SOUTH DAKOTA/SW MINNESOTA/NW IOWA
NATIONAL WEATHER SERVICE SIOUX FALLS SD
100 PM CDT MON JUN 26 2017

NOTE: "FAIR" INDICATES FEW OR NO CLOUDS BELOW 12,000 FEET WITH NO
SIGNIFICANT WEATHER AND OR OBSTRUCTIONS TO VISIBILITY.


SDZ038>040-050-052>070-261900-
SOUTHEAST SOUTH DAKOTA

CITY           SKY/WX    TMP DP  RH WIND       PRES   REMARKS
BROOKINGS      MOSUNNY   64  40  41 N7G16     30.23F
CHAMBERLAIN    SUNNY     72  41  32 NE8G17    30.22F
6HR MIN TEMP:  53; 6HR MAX TEMP:  73;

HURON          SUNNY     69  40  34 N9        30.24F
6HR MIN TEMP:  47; 6HR MAX TEMP:  70;

MADISON        FAIR      64  43  45 NE9G17    30.24S
MITCHELL       SUNNY     70  38  31 N12G20    30.24S
6HR MIN TEMP:  50; 6HR MAX TEMP:  71;

SIOUX FALLS    MOSUNNY   67  44  43 N12G17    30.22F
6HR MIN TEMP:  53; 6HR MAX TEMP:  67;

WINNER         FAIR      75  41  29 NE9G23    30.22F
YANKTON        SUNNY     69  45  41 N13G21    30.21S
$$

MNZ071-072-080-081-089-090-097-098-261900-
SOUTHWEST MINNESOTA

CITY           SKY/WX    TMP DP  RH WIND       PRES   REMARKS
FAIRMONT       MOSUNNY   66  42  41 N10G18    30.21S
JACKSON        MOSUNNY   64  41  42 VRB9G16   30.22S
LUVERNE        SUNNY     64  36  34 NE6       30.23S
MARSHALL       MOSUNNY   65  41  41 VRB3      30.22F
6HR MIN TEMP:  49; 6HR MAX TEMP:  65;

MONTEVIDEO     MOSUNNY   68  43  40 NE8       30.22F
PIPESTONE      SUNNY     64  37  36 NE13      30.23S
REDWOOD FALLS  MOSUNNY   67  38  34 NW10      30.21F
TRACY          MOSUNNY   65  43  44 N8        30.23S
WINDOM         SUNNY     66  39  37 N12G17    30.21F
WORTHINGTON    SUNNY     64  42  44 NE10      30.22F
$$

IAZ001>003-012>014-020>022-031-032-NEZ013-014-SDZ071-261900-
NORTHWEST IOWA

CITY           SKY/WX    TMP DP  RH WIND       PRES   REMARKS
CHEROKEE       MOSUNNY   68  47  48 N6        30.19F
DENISON        MOSUNNY   70  52  52 N8        30.19F
ESTHERVILLE    SUNNY     66  44  45 N13G18    30.20F
LE MARS        MOSUNNY   68  46  45 NE10      30.20F
ORANGE CITY    MOSUNNY   68  46  45 NE6       30.21F
SHELDON        MOSUNNY   66  45  45 VRB7      30.20S
SIOUX CITY     MOSUNNY   72  49  44 NE8       30.18F
6HR MIN TEMP:  54; 6HR MAX TEMP:  73;

SPENCER        SUNNY     69  40  34 N9        30.20F
6HR MIN TEMP:  55; 6HR MAX TEMP:  70;

STORM LAKE       N/A     68  46  45 NE7G15    30.20S
$$

ABBREVIATIONS USED IN REMARKS
   TC - TEMPERATURE IN CELSIUS
  WCI - WIND CHILL INDEX
   HX - HEAT INDEX
  VSB - VISIBILITY




USA.gov is the U.S. government's official web portal to all federal, state and local government web resources and services.